User: anonymous   Login
Location: Narvik
(68.4360°N, 17.4370°E)
Time: 19:58:57
(UTC+02:00)
Language:

EO-79 - Orbit

View from above orbital plane
View from above orbital plane
View from above satellite
View from above satellite

Ground track
Ground track

The orbit data is extracted from the following two-line orbital elements,

1 40025U 14033R   19236.43222685  .00000096  00000-0  16188-4 0  9998
2 40025  97.9034 156.0048 0011889 193.4942 166.5958 14.88968611281258
Epoch (UTC): 24 August 2019 10:22:24
Eccentricity: 0.0011889
inclination: 97.9034°
perigee height: 593 km
apogee height: 609 km
right ascension of ascending node: 156.0048°
argument of perigee: 193.4942°
revolutions per day: 14.88968611
mean anomaly at epoch: 166.5958°
orbit number at epoch: 28125

The dashed part of the orbit path shows where the satellite is in the earth's shadow,  

DLR